Regional Weather Roundup
Issued by NWS

Home | Current Version | Previous Version | Text Only | Print | Product List | Glossary Off
Versions: 1 2 3 4 5 6 7 8 9 10 11 12 13 14 15 16 17 18 19 20 21 22 23 24 25 26 27 28 29 30 31 32 33 34 35 36 37 38 39 40 41 42 43 44 45 46 47 48 49 50

000
ASUS43 KBIS 240402
RWRND

NORTH DAKOTA REGIONAL WEATHER ROUNDUP
NATIONAL WEATHER SERVICE BISMARCK ND
1100 PM CDT FRI JUN 23 2017

NOTE: "FAIR" INDICATES FEW OR NO CLOUDS BELOW 12,000 FEET WITH NO
SIGNIFICANT WEATHER AND/OR OBSTRUCTIONS TO VISIBILITY.


NDZ001>003-009>011-017-240500-
NORTHWEST NORTH DAKOTA

CITY           SKY/WX    TMP DP  RH WIND       PRES   REMARKS
WILLISTON      CLOUDY    56  39  53 W7        30.14R
MINOT          PTCLDY    52  37  56 W7        30.07R
MINOT AFB      MOCLDY    49  38  67 NW12      30.07R
$$

NDZ018>021-031>035-040>046-240500-
SOUTHWEST NORTH DAKOTA

CITY           SKY/WX    TMP DP  RH WIND       PRES   REMARKS
BISMARCK       CLEAR     55  36  48 W5        30.11S
DICKINSON      CLOUDY    49  32  52 W6        30.14R
GARRISON         N/A     52  37  56 NW7       30.09S
HETTINGER ARPT MOCLDY    47  31  53 CALM      30.19R
$$

NDZ004>008-012>016-024-026-027-054-240500-
NORTHEAST NORTH DAKOTA

CITY           SKY/WX    TMP DP  RH WIND       PRES   REMARKS
GRAND FORKS    CLOUDY    56  42  59 NW10      29.98R
GRND FRKS AFB  MOCLDY    55  40  59 NW12      29.99R
DEVILS LAKE    CLEAR     50  40  68 W9        30.03S
$$

NDZ022-023-025-028>030-036>039-047>053-240500-
SOUTHEAST NORTH DAKOTA

CITY           SKY/WX    TMP DP  RH WIND       PRES   REMARKS
FARGO          CLOUDY    58  41  53 NW16      30.01R
JAMESTOWN      CLEAR     51  39  63 NW9       30.05S
$$




USA.gov is the U.S. government's official web portal to all federal, state and local government web resources and services.